Northwest Alabama Regional Airport
KMSL : now visible

Airfield :











YOU CAN JOIN US ON...

 
LOGIN :

Register | Disclaimer

   EN    FR    IT 

 









Legend :    VFR   Marginal VFR   IFR   Intensive IFR   Very Intensive IFR
Visi :
Ceiling :
>= 8 km
>= 3000ft
5 to 8 km
1000 to 3000 ft
1500m to 5 km
500 to 1000 ft
800 to 1500m
200 to 500 ft
< 800m
< 200 ft
Symbols :   Thunderstorms  Fog  Heavy snow  Heavy precipitations  Wind > 20 kt






- Airport Elevation : 551 ft
- IATA code : MSL


KMSL - Northwest Alabama Regional

CURRENT METAR :
  • 041453Z AUTO VRB05KT 10SM CLR 21/09 A3004 RMK AO2 SLP168 T02110089 50005

EXPIRED METARs :
  • 041353Z AUTO 30003KT 10SM CLR 17/11 A3004 RMK AO2 SLP170 T01720111
  • 041253Z AUTO 00000KT 10SM SCT100 14/10 A3004 RMK AO2 SLP170 T01440100

TAF KMSL
Valid from the 04 at 12:00 until the 05 at 12:00 UTC


041120Z 0412/0512 31004KT P6SM SCT070 BKN200
FM050200 00000KT P6SM SCT050 BKN250



MET'MAP, your aeronautical weather chart ! - Copyright ORBIFLY December 2007 - Disclaimer

ORBIFLY MET'MAP TEAM :

Programming & Development : Alexandra Zaïnal
Concept & original design : Baudouin d'Aumeries
Assistance for programming : Marc-Olivier Méhu
Technical & hardware support : Manuel Goepfert

Contact : metmap@orbifly.com




SOURCES & CREDITS :

   NOAA       Earth
Advisory